Laconia, NH

7:04 AM EST on January 16, 2018 (GMT -0500)
Laconia Municipal

Weather History for KLCI - May, 2013

Change the Weather History Date:

Sunday, May 12, 2013

  Actual Average Record
Temperature  
Mean Temperature 57 °F -  
Max Temperature 66 °F 65 °F 87 °F (1993)
Min Temperature 46 °F 43 °F 33 °F (1999)
Degree Days  
Heating Degree Days 8    
Growing Degree Days 7 (Base 50)    
Moisture  
Dew Point 43 °F    
Average Humidity 61    
Maximum Humidity 94    
Minimum Humidity 35    
Precipitation  
Precipitation 0.00 in - - ()
Sea Level Pressure  
Sea Level Pressure 29.64 in    
Wind  
Wind Speed 6 mph (WSW)    
Max Wind Speed 17 mph    
Max Gust Speed 28 mph    
Visibility 10 miles    
Events      
Averages and records for this station are not official NWS values.
T = Trace of Precipitation, MM = Missing Value Source: NWS Daily Summary

Daily Weather History Graph

Daily Weather History Graph

Search for Another Location

Airport or City:

Trip Planner

Search our weather history database for the weather conditions in past years. The results will help you decide how hot, cold, wet, or windy it might be!

Date:

Astronomy

May. 12, 2013 Rise Set
Actual Time 5:23 AM EDT 8:00 PM EDT
Civil Twilight 4:51 AM EDT 8:33 PM EDT
Nautical Twilight 4:10 AM EDT 9:14 PM EDT
Astronomical Twilight 3:23 AM EDT 10:01 PM EDT
Moon 7:15 AM EDT (5/12) 10:26 PM EDT (5/12)
Length of Visible Light 15h 42m
Length of Day
14h 36m
Waxing Crescent, 6% of the Moon is Illuminated
May 12
Waxing Crescent
May 18
First Quarter
May 25
Full
May 31
Last Quarter
Jun 8
New

Hourly Weather History & Observations

Time (EDT) Temp. Windchill Dew Point Humidity Pressure Visibility Wind Dir Wind Speed Gust Speed Precip Events Conditions
12:15 AM 60.8 °F - 55.4 °F 82% 29.69 in 10.0 mi West 3.5 mph - N/A   Mostly Cloudy
12:35 AM 60.8 °F - 55.4 °F 82% 29.69 in 10.0 mi Calm Calm - N/A   Overcast
12:55 AM 60.8 °F - 57.2 °F 88% 29.68 in 10.0 mi West 3.5 mph - N/A   Overcast
1:35 AM 59.0 °F - 55.4 °F 88% 29.66 in 6.0 mi Calm Calm - N/A   Partly Cloudy
1:55 AM 57.2 °F - 55.4 °F 94% 29.65 in 2.5 mi West 3.5 mph - N/A   Clear
2:15 AM 57.2 °F - 55.4 °F 94% 29.65 in 10.0 mi Calm Calm - N/A   Clear
2:35 AM 57.2 °F - 53.6 °F 88% 29.65 in 5.0 mi WSW 3.5 mph - N/A   Partly Cloudy
2:55 AM 59.0 °F - 55.4 °F 88% 29.64 in 8.0 mi West 5.8 mph - N/A   Mostly Cloudy
3:15 AM 59.0 °F - 55.4 °F 88% 29.64 in 7.0 mi WSW 4.6 mph - N/A   Overcast
3:35 AM 59.0 °F - 55.4 °F 88% 29.65 in 8.0 mi West 4.6 mph - N/A   Overcast
4:15 AM 59.0 °F - 55.4 °F 88% 29.63 in 7.0 mi SW 8.1 mph - N/A   Overcast
4:35 AM 59.0 °F - 55.4 °F 88% 29.63 in 7.0 mi SW 5.8 mph - N/A   Overcast
4:55 AM 59.0 °F - 55.4 °F 88% 29.63 in 10.0 mi SW 3.5 mph - N/A   Overcast
5:35 AM 59.0 °F - 55.4 °F 88% 29.64 in 10.0 mi SW 4.6 mph - N/A   Overcast
5:55 AM 59.0 °F - 55.4 °F 88% 29.63 in 10.0 mi West 3.5 mph - N/A   Overcast
6:35 AM 57.2 °F - 53.6 °F 88% 29.64 in 10.0 mi SW 3.5 mph - N/A   Overcast
6:55 AM 57.2 °F - 53.6 °F 88% 29.65 in 10.0 mi WSW 5.8 mph - N/A   Overcast
7:15 AM 57.2 °F - 51.8 °F 82% 29.64 in 10.0 mi Calm Calm - N/A   Overcast
7:35 AM 57.2 °F - 51.8 °F 82% 29.64 in 10.0 mi WSW 4.6 mph - N/A   Overcast
7:55 AM 57.2 °F - 51.8 °F 82% 29.64 in 10.0 mi West 4.6 mph - N/A   Overcast
8:15 AM 57.2 °F - 48.2 °F 72% 29.63 in 10.0 mi WNW 5.8 mph - N/A   Overcast
8:35 AM 57.2 °F - 48.2 °F 72% 29.63 in 10.0 mi West 6.9 mph - N/A   Overcast
9:15 AM 57.2 °F - 48.2 °F 72% 29.62 in 10.0 mi West 9.2 mph - N/A   Overcast
9:35 AM 57.2 °F - 48.2 °F 72% 29.62 in 10.0 mi West 8.1 mph - N/A   Overcast
9:55 AM 57.2 °F - 48.2 °F 72% 29.63 in 10.0 mi WSW 10.4 mph - N/A   Overcast
10:15 AM 59.0 °F - 48.2 °F 67% 29.62 in 10.0 mi WSW 9.2 mph - N/A   Overcast
10:35 AM 57.2 °F - 46.4 °F 67% 29.61 in 10.0 mi West 8.1 mph - N/A   Overcast
10:55 AM 59.0 °F - 46.4 °F 63% 29.61 in 10.0 mi WSW 8.1 mph - N/A   Overcast
11:35 AM 60.8 °F - 44.6 °F 55% 29.60 in 10.0 mi West 8.1 mph - N/A   Overcast
11:55 AM 60.8 °F - 44.6 °F 55% 29.59 in 10.0 mi West 10.4 mph 17.3 mph N/A   Overcast
12:15 PM 62.6 °F - 42.8 °F 48% 29.59 in 10.0 mi WNW 10.4 mph 17.3 mph N/A   Overcast
12:35 PM 62.6 °F - 42.8 °F 48% 29.59 in 10.0 mi WSW 8.1 mph - N/A   Overcast
12:55 PM 64.4 °F - 44.6 °F 49% 29.58 in 10.0 mi West 10.4 mph - N/A   Overcast
1:15 PM 64.4 °F - 44.6 °F 49% 29.57 in 10.0 mi WSW 15.0 mph - N/A   Overcast
1:35 PM 64.4 °F - 42.8 °F 45% 29.58 in 10.0 mi WSW 12.7 mph - N/A   Overcast
1:55 PM 64.4 °F - 42.8 °F 45% 29.58 in 10.0 mi West 10.4 mph 16.1 mph N/A   Overcast
2:35 PM 64.4 °F - 39.2 °F 40% 29.57 in 10.0 mi WSW 15.0 mph 20.7 mph N/A   Overcast
2:55 PM 66.2 °F - 41.0 °F 40% 29.56 in 10.0 mi SW 15.0 mph - N/A   Mostly Cloudy
3:15 PM 66.2 °F - 39.2 °F 37% 29.56 in 10.0 mi West 13.8 mph 21.9 mph N/A   Overcast
3:35 PM 66.2 °F - 39.2 °F 37% 29.57 in 10.0 mi West 15.0 mph - N/A   Mostly Cloudy
3:55 PM 64.4 °F - 39.2 °F 40% 29.57 in 10.0 mi West 10.4 mph 17.3 mph N/A   Overcast
4:15 PM 64.4 °F - 41.0 °F 42% 29.58 in 10.0 mi West 17.3 mph 23.0 mph N/A   Mostly Cloudy
4:55 PM 60.8 °F - 42.8 °F 52% 29.61 in 10.0 mi West 15.0 mph 24.2 mph N/A   Mostly Cloudy
5:15 PM 57.2 °F - 37.4 °F 48% 29.62 in 10.0 mi West 13.8 mph 27.6 mph N/A   Mostly Cloudy
5:35 PM 57.2 °F - 37.4 °F 48% 29.63 in 10.0 mi West 12.7 mph 18.4 mph N/A   Overcast
6:15 PM 55.4 °F - 33.8 °F 44% 29.65 in 10.0 mi WSW 16.1 mph 20.7 mph N/A   Overcast
6:35 PM 55.4 °F - 30.2 °F 38% 29.65 in 10.0 mi West 10.4 mph 21.9 mph N/A   Mostly Cloudy
6:55 PM 55.4 °F - 32.0 °F 41% 29.66 in 10.0 mi West 12.7 mph 19.6 mph N/A   Mostly Cloudy
7:15 PM 55.4 °F - 32.0 °F 41% 29.66 in 10.0 mi WSW 10.4 mph - N/A   Partly Cloudy
7:35 PM 55.4 °F - 32.0 °F 41% 29.67 in 10.0 mi West 8.1 mph - N/A   Clear
7:55 PM 53.6 °F - 32.0 °F 44% 29.68 in 10.0 mi West 4.6 mph - N/A   Clear
8:15 PM 53.6 °F - 33.8 °F 47% 29.69 in 10.0 mi West 8.1 mph - N/A   Clear
8:35 PM 53.6 °F - 28.4 °F 38% 29.70 in 10.0 mi West 10.4 mph 18.4 mph N/A   Clear
9:15 PM 51.8 °F - 24.8 °F 35% 29.71 in 10.0 mi West 9.2 mph - N/A   Clear
9:35 PM 51.8 °F - 24.8 °F 35% 29.73 in 10.0 mi WSW 8.1 mph - N/A   Clear
9:55 PM 51.8 °F - 24.8 °F 35% 29.73 in 10.0 mi WSW 9.2 mph - N/A   Clear
10:15 PM 50.0 °F - 24.8 °F 37% 29.74 in 10.0 mi West 9.2 mph - N/A   Clear
10:35 PM 48.2 °F - 24.8 °F 40% 29.75 in 10.0 mi West 10.4 mph - N/A   Clear
10:55 PM 48.2 °F - 24.8 °F 40% 29.75 in 10.0 mi West 6.9 mph - N/A   Clear
11:15 PM 48.2 °F - 24.8 °F 40% 29.76 in 10.0 mi West 11.5 mph 16.1 mph N/A   Clear
11:55 PM 46.4 °F 41.5 °F 24.8 °F 43% 29.77 in 10.0 mi WSW 10.4 mph - N/A   Clear